SENTINEL-2A

Last updated on Wed Sep 17 2025 00:02:31 GMT+0000 (Coordinated Universal Time)

1 40697U 15028A 25259.57830215 .00000104 00000+0 56446-4 0 9999 2 40697 98.5714 333.3437 0001141 95.6306 264.5008 14.30812622534606
UTC large
Height (km)
Speed (km/s)
/
Latitude / Longitude
Inclination (degrees)
Orbital Period (minutes)
Azimuth
Elevation
Range (km)
Doppler Factor

Next 0 passes for location: London (51.5072 / 0.1276)

Sorry there are no passes over London.